Flag for U.S.A. Weather past 2 weeks in Springfield, Illinois, U.S.A.

Now
35 °F

Overcast.


Feels Like: 27 °F
Forecast: 22 / 38 °F
Wind: 12 mph from Southeast

Location: Capital Airport

Current Time: Feb 1, 2015 at 1:44:19 AM

Latest Report: Feb 1, 2015 at 12:52 AM


Visibility: 10 mi

Pressure: 30.04 "Hg

Humidity: 88%

Dew point: 32 °F

Location of SpringfieldLocation

Historic Weather in Springfield — Graph

°F

Springfield temperature yesterday

Maximum temperature yesterday: 39 °F (at 12:52 PM)
Minimum temperature yesterday: 25 °F (at 12:52 AM)
Average temperature yesterday: 33 °F

Past Weeks' High & Low Weather Summary

 TemperatureHumidityPressure
High51 °F (Jan 17, 12:52 PM)100% (Jan 25, 7:52 AM)30.58 "Hg (Jan 25, 7:52 AM)
Low21 °F (Jan 26, 4:52 AM)48% (Jan 19, 1:52 PM)29.60 "Hg (Jan 25, 4:52 AM)
Average35 °F76%30.07 "Hg
* Reported Jan 17 12:52 AM — Feb 1 12:52 AM, Springfield, Weather by CustomWeather, © 2014

Note: Actual official high and low records may vary slightly from our data, if they occured in-between our weather recording intervals... More about our weather records

Advertising

Springfield weather history for previous 24 hours

 ConditionsComfort  
Time TempWeatherWind HumidityBarometerVisibility
12:52 AM
Feb 1
35 °FOvercast.12 mph88%30.04 "Hg10 mi
11:52 PM
Jan 31
34 °FLight rain. Fog.10 mph92%30.08 "Hg4 mi
10:52 PM35 °FLight rain. Fog.8 mph92%30.12 "Hg5 mi
9:52 PM35 °FLight rain. Fog.7 mph92%30.15 "Hg6 mi
8:52 PM35 °FLight rain. Overcast.9 mph85%30.16 "Hg7 mi
7:52 PM35 °FOvercast.6 mph88%30.19 "Hg10 mi
6:52 PM36 °FOvercast.7 mph85%30.20 "Hg9 mi
5:52 PM35 °FFog.8 mph92%30.22 "Hg6 mi
4:52 PM36 °FLight rain. Fog.3 mph89%30.22 "Hg5 mi
3:52 PM37 °FLight rain. Mostly cloudy.6 mph82%30.24 "Hg5 mi
2:52 PM38 °FOvercast.7 mph73%30.25 "Hg10 mi
1:52 PM39 °FMostly cloudy.7 mph65%30.26 "Hg10 mi
12:52 PM39 °FBroken clouds.9 mph60%30.28 "Hg10 mi
11:52 AM38 °FPartly sunny.7 mph63%30.30 "Hg10 mi
10:52 AM38 °FSunny.6 mph60%30.31 "Hg10 mi
9:52 AM36 °FPassing clouds.5 mph67%30.32 "Hg10 mi
8:52 AM33 °FBroken clouds.7 mph70%30.33 "Hg10 mi
7:52 AM31 °FPartly sunny.8 mph73%30.34 "Hg10 mi
6:52 AM29 °FPassing clouds.5 mph75%30.33 "Hg10 mi
5:52 AM29 °FClear.7 mph75%30.33 "Hg10 mi
4:52 AM28 °FClear.7 mph75%30.33 "Hg10 mi
3:52 AM28 °FPassing clouds.6 mph75%30.34 "Hg10 mi
2:52 AM26 °FPassing clouds.8 mph77%30.36 "Hg10 mi
1:52 AM26 °FClear.7 mph77%30.38 "Hg10 mi
Weather by CustomWeather, © 2014

See weather overviewHow to use our weather pages